BXS1836 OMDB-OEJN

Flight info

Callsign BXS1836
Flight time N/A
Altitude 34000
Route KUTLI L519 ATUDO M318 GOLGU M550 RIBOT DCT MIGMA DCT ITRUX Y511 ASMIS T218 IMGUT M309 VEMEM
Aircraft A321/M-SDE3FGHIRWY/LB1

Departure

Time N/A
Airport Dubai International Airport (OMDB)

Arrival

Time 2026-05-05 18:02
Airport King Abdulaziz International Airport (OEJN)
Time Latitude Longitude Altitude Speed Heading
2026-05-05 17:43 22.07080 39.70467 33941 ft 409 kts 237°
2026-05-05 17:44 22.03944 39.65351 33921 ft 409 kts 237°
2026-05-05 17:44 22.01335 39.61089 33918 ft 409 kts 237°
2026-05-05 17:45 21.98190 39.55977 33918 ft 409 kts 237°
2026-05-05 17:45 21.95079 39.50921 33870 ft 393 kts 237°
2026-05-05 17:45 21.93742 39.48411 33687 ft 381 kts 244°
2026-05-05 17:46 21.92610 39.45860 33315 ft 375 kts 244°
2026-05-05 17:46 21.91494 39.43340 32877 ft 371 kts 244°
2026-05-05 17:46 21.90387 39.40848 32416 ft 368 kts 244°
2026-05-05 17:46 21.89285 39.38378 31907 ft 365 kts 244°
2026-05-05 17:47 21.88187 39.35917 31390 ft 364 kts 244°
2026-05-05 17:47 21.87090 39.33459 30915 ft 363 kts 243°
2026-05-05 17:47 21.86005 39.31024 30472 ft 360 kts 243°
2026-05-05 17:47 21.84926 39.28605 29984 ft 358 kts 243°
2026-05-05 17:48 21.83831 39.26155 28969 ft 368 kts 243°
2026-05-05 17:48 21.82706 39.23638 27947 ft 378 kts 243°
2026-05-05 17:48 21.81379 39.21170 26932 ft 387 kts 232°
2026-05-05 17:48 21.79617 39.18934 25939 ft 396 kts 230°
2026-05-05 17:49 21.77786 39.16676 24944 ft 405 kts 229°
2026-05-05 17:49 21.75902 39.14375 23957 ft 413 kts 229°
2026-05-05 17:49 21.74010 39.12068 22940 ft 421 kts 229°
2026-05-05 17:49 21.72062 39.09688 21780 ft 428 kts 229°
2026-05-05 17:50 21.70057 39.07235 20653 ft 434 kts 229°
2026-05-05 17:50 21.68007 39.04931 19961 ft 430 kts 219°
2026-05-05 17:50 21.65409 39.03421 19373 ft 425 kts 198°
2026-05-05 17:50 21.62487 39.03084 18820 ft 424 kts 176°
2026-05-05 17:51 21.59640 39.03842 18255 ft 423 kts 161°
2026-05-05 17:51 21.56994 39.05218 17508 ft 423 kts 152°
2026-05-05 17:51 21.54693 39.07249 16363 ft 437 kts 133°
2026-05-05 17:51 21.53165 39.10062 15220 ft 435 kts 112°
2026-05-05 17:52 21.52688 39.13215 14149 ft 425 kts 90°
2026-05-05 17:52 21.53318 39.16259 13070 ft 416 kts 68°
2026-05-05 17:52 21.54603 39.18990 11979 ft 402 kts 68°
2026-05-05 17:52 21.55327 39.21816 10925 ft 387 kts 87°
2026-05-05 17:53 21.55139 39.24624 9906 ft 372 kts 107°
2026-05-05 17:53 21.54090 39.27103 8831 ft 360 kts 128°
2026-05-05 17:53 21.52462 39.29095 7759 ft 351 kts 138°
2026-05-05 17:53 21.50450 39.30500 6736 ft 342 kts 161°
2026-05-05 17:54 21.48158 39.31007 5708 ft 334 kts 181°
2026-05-05 17:54 21.45910 39.30578 4657 ft 327 kts 204°
2026-05-05 17:54 21.44057 39.29254 3713 ft 315 kts 232°
2026-05-05 17:54 21.43006 39.27332 3340 ft 285 kts 258°
2026-05-05 17:55 21.42901 39.25367 3214 ft 248 kts 288°
2026-05-05 17:55 21.43623 39.23856 3121 ft 216 kts 318°
2026-05-05 17:55 21.44837 39.23039 3112 ft 202 kts 336°
2026-05-05 17:55 21.46060 39.22474 3116 ft 179 kts 339°
2026-05-05 17:56 21.47145 39.21993 3103 ft 160 kts 339°
2026-05-05 17:56 21.48125 39.21515 3123 ft 149 kts 338°
2026-05-05 17:56 21.49062 39.21094 3106 ft 144 kts 339°
2026-05-05 17:56 21.49988 39.20707 3106 ft 141 kts 340°
2026-05-05 17:57 21.50896 39.20339 3086 ft 142 kts 340°
2026-05-05 17:57 21.51820 39.19970 2988 ft 140 kts 340°
2026-05-05 17:57 21.52746 39.19603 2843 ft 141 kts 341°
2026-05-05 17:57 21.53657 39.19243 2670 ft 140 kts 342°
2026-05-05 17:58 21.54551 39.18890 2513 ft 138 kts 342°
2026-05-05 17:58 21.55451 39.18536 2349 ft 137 kts 342°
2026-05-05 17:58 21.56345 39.18183 2202 ft 136 kts 341°
2026-05-05 17:58 21.57237 39.17831 2121 ft 138 kts 341°
2026-05-05 17:59 21.58131 39.17479 1874 ft 136 kts 342°
2026-05-05 17:59 21.59022 39.17128 1661 ft 138 kts 342°
2026-05-05 17:59 21.59915 39.16776 1475 ft 135 kts 342°
2026-05-05 17:59 21.60800 39.16428 1295 ft 136 kts 341°
2026-05-05 18:00 21.61689 39.16077 1109 ft 136 kts 341°
2026-05-05 18:00 21.62577 39.15727 948 ft 136 kts 341°
2026-05-05 18:00 21.63468 39.15376 782 ft 137 kts 340°
2026-05-05 18:00 21.64352 39.15027 628 ft 134 kts 341°
2026-05-05 18:01 21.65218 39.14685 457 ft 132 kts 339°
2026-05-05 18:01 21.66083 39.14344 278 ft 133 kts 341°
2026-05-05 18:01 21.66950 39.14002 99 ft 133 kts 340°
2026-05-05 18:01 21.67783 39.13673 35 ft 112 kts 340°
2026-05-05 18:02 21.68351 39.13448 30 ft 56 kts 339°
2026-05-05 18:02 21.68607 39.13414 28 ft 35 kts
2026-05-05 18:02 21.68707 39.13431 28 ft 7 kts 10°
2026-05-05 18:02 21.68753 39.13444 28 ft 6 kts 15°
2026-05-05 18:03 21.68773 39.13450 28 ft 0 kts 13°
2026-05-05 18:03 21.68782 39.13452 28 ft 3 kts 10°
2026-05-05 18:03 21.68810 39.13455 28 ft 6 kts
2026-05-05 18:04 21.68870 39.13452 28 ft 12 kts 349°
2026-05-05 18:04 21.68966 39.13419 28 ft 17 kts 340°
2026-05-05 18:04 21.69097 39.13366 27 ft 23 kts 339°
2026-05-05 18:04 21.69240 39.13310 26 ft 22 kts 339°
2026-05-05 18:05 21.69360 39.13293 26 ft 14 kts 40°
2026-05-05 18:05 21.69404 39.13393 26 ft 16 kts 69°
2026-05-05 18:05 21.69488 39.13448 27 ft 17 kts 350°
2026-05-05 18:05 21.69608 39.13406 25 ft 20 kts 340°
2026-05-05 18:06 21.69732 39.13357 24 ft 14 kts 340°
2026-05-05 18:06 21.69786 39.13322 24 ft 14 kts 293°
2026-05-05 18:06 21.69774 39.13273 25 ft 0 kts 250°